User: anonymous
Location: Unspecified
(0.0000°N, 0.0000°E)
Time: 07:20:08
(UTC+00:00)
Language:

Aussat K2 - Orbit

View from above orbital plane
View from above orbital plane
View from above satellite
View from above satellite

Ground track
Ground track

The orbit data is extracted from the following two-line orbital elements,

1 16275U 85109C   14200.65240132 -.00000010  00000-0  00000+0 0  4855
2 16275 014.6515 020.1651 0005036 149.8741 188.0389 00.99952894 94597
Epoch (UTC): 19 July 2014 15:39:27
Eccentricity: 0.0005036
inclination: 14.6515°
perigee height: 35854 km
apogee height: 35897 km
right ascension of ascending node: 20.1651°
argument of perigee: 149.8741°
revolutions per day: 0.99952894
mean anomaly at epoch: 188.0389°
orbit number at epoch: 9459

The dashed part of the orbit path shows where the satellite is in the earth's shadow,  

DLR